[Date Prev][Date Next][Thread Prev][Thread Next] - [Date Index][Thread Index][Author Index]

2 Line ISS Keps 7-25



ISS
1 25544U 98067A   02206.49694351  .00015652  00000-0  20025-3 0  6966
2 25544  51.6351 220.6177 0008983  36.7376 124.8750 15.59366502210000


----
Via the sarex mailing list at AMSAT.ORG courtesy of AMSAT-NA.
To unsubscribe, send "unsubscribe sarex" to Majordomo@amsat.org



AMSAT Top AMSAT Home